Tracking 30102 objects as of 13-Dec-2024
HD Live streaming from Space Station
objects crossing your sky now

STARLINK-5746

Track STARLINK-5746 now!
10-day predictions
STARLINK-5746 is classified as:


NORAD ID: 56926
Int'l Code: 2023-083BC
Perigee: 565.8 km
Apogee: 566.7 km
Inclination: 43.0 °
Period: 95.8 minutes
Semi major axis: 6937 km
RCS: Unknown
Launch date: June 12, 2023
Source: United States (US)
Launch site: AIR FORCE EASTERN TEST RANGE (AFETR)
Your satellite tracking list
Your tracking list is empty




NASA's NSSDC Master Catalog

Two Line Element Set (TLE):
1 56926U 23083BC  24347.11747401 -.00000213  00000-0 -67455-6 0  9990
2 56926  43.0031   7.7633 0000598 287.3682  72.7095 15.02524908 83743
Source of the keplerian elements: AFSPC